Tracking 19817 objects as of 19-Aug-2019
HD Live streaming from Space Station
objects crossing your sky now

THORAD DELTA 1 DEB

Track THORAD DELTA 1 DEB now!
10-day predictions


NORAD ID: 8395
Int'l Code: 1974-089BX
Perigee: 1,340.0 km
Apogee: 1,470.4 km
Inclination: 100.6 °
Period: 113.7 minutes
Semi major axis: 7776 km
RCS: 0.0263 m2 (small)
Launch date: November 15, 1974
Source: United States (US)
Launch site: AIR FORCE WESTERN TEST RANGE (AFWTR)

Note: This is SATELLITE DEBRIS
aabbcc
Your satellite tracking list
Your tracking list is empty




NASA's NSSDC Master Catalog

Two Line Element Set (TLE):
1  8395U 74089BX  19230.22704001 +.00000983 +00000-0 +53597-2 0  9995
2  8395 100.6033 320.3739 0083860 253.6744 135.4410 12.66043916043646
Source of the keplerian elements: AFSPC